This demonstration page uses our WeatherBlox Daily Observations layout. Learn more.

Left ArrowRight Arrow

Hourly Observations for November 15, 2016

Temp ( °F °C ) Dew Point ( °F °C ) Humidity (%) Winds ( mph kmh ) Pressure ( in mb ) Visibility ( mi km ) Precip ( " mm )
12:53 am 00:53 Clear with Mist and Fog 40 4.4 37 2.8 89 89 Calm 30.01 1016 3 5 0.00 0.00
1:53 am 01:53 Clear with Mist and Fog 38 3.3 35 1.7 89 89 Calm 30.00 1016 3 5 0.00 0.00
2:03 am 02:03 Clear with Mist and Fog 39 4 36 2 87 87 Calm 30.03 1017 3 4 0.00 0.00
2:12 am 02:12 Clear with Mist and Fog 39 4 36 2 87 87 Calm 30.03 1017 3 5 0.00 0.00
2:53 am 02:53 Clear with Mist and Fog 38 3.3 36 2.2 93 93 Calm 30.00 1016 3 5 0.00 0.00
3:53 am 03:53 Clear with Mist and Fog 38 3.3 34 1.1 86 86 Calm 30.00 1016 3 5 0.00 0.00
4:53 am 04:53 Clear with Mist and Fog 36 2.2 33 0.6 89 89 Calm 30.00 1016 3 5 0.00 0.00
5:45 am 05:45 Clear with Mist and Fog 36 2.2 33 0.6 89 89 Calm 30.06 1018 3 4 0.00 0.00
5:53 am 05:53 Clear with Mist and Fog 36 2.2 33 0.6 89 89 Calm 30.01 1016 3 5 0.00 0.00
6:53 am 06:53 Clear with Mist and Fog 36 2.2 33 0.6 89 89 Calm 30.02 1017 4 6 0.00 0.00
7:53 am 07:53 Sunny with Mist and Fog 37 2.8 34 1.1 89 89 Calm 30.04 1017 5 8 0.00 0.00
8:53 am 08:53 Hazy 45 7.2 39 3.9 80 80 Calm 30.04 1017 5 8 0.00 0.00
9:53 am 09:53 Hazy 54 12.2 40 4.4 59 59 Calm 30.03 1017 5 8 0.00 0.00
10:53 am 10:53 Sunny 62 16.7 34 1.1 35 35 WNW 9 15 30.01 1016 7 11 0.00 0.00
11:53 am 11:53 Sunny 65 18.3 34 1.1 32 32 Calm 29.98 1015 10 16 0.00 0.00
12:53 pm 12:53 Sunny 67 19.4 35 1.7 31 31 NNW 7 11 29.96 1015 10 16 0.00 0.00
1:53 pm 13:53 Sunny 68 20 37 2.8 32 32 NW 10 17 29.94 1014 10 16 0.00 0.00
2:53 pm 14:53 Sunny 69 20.6 37 2.8 31 31 NW 9 15 29.93 1014 10 16 0.00 0.00
3:53 pm 15:53 Sunny 69 20.6 38 3.3 32 32 W 9 15 29.91 1013 10 16 0.00 0.00
4:53 pm 16:53 Partly Cloudy 67 19.4 39 3.9 36 36 NNE 3 6 29.91 1013 10 16 0.00 0.00
5:53 pm 17:53 Mostly Cloudy 63 17.2 40 4.4 43 43 Calm 29.93 1013 10 16 0.00 0.00
6:53 pm 18:53 Mostly Cloudy 57 13.9 42 5.6 58 58 Calm 29.94 1014 10 16 0.00 0.00
7:53 pm 19:53 Mostly Cloudy 54 12.2 42 5.6 64 64 Calm 29.96 1014 10 16 0.00 0.00
8:53 pm 20:53 Clear 53 11.7 42 5.6 66 66 Calm 29.96 1015 10 16 0.00 0.00
9:53 pm 21:53 Clear 50 10 42 5.6 74 74 Calm 29.96 1015 10 16 0.00 0.00
10:53 pm 22:53 Clear 47 8.3 41 5 80 80 Calm 29.96 1015 10 16 0.00 0.00
11:53 pm 23:53 Clear 46 7.8 41 5 83 83 Calm 29.96 1015 10 16 0.00 0.00

Powered by AerisWeather